Flag for United Kingdom Weather past 2 weeks in Rotherham, England, United Kingdom

Now
52 °F

Rain showers. Cloudy.


Feels Like: 47 °F
Forecast: 42 / 53 °F
Wind: 16 mph from West

Location: Nottingham Weather Centre

Current Time: Oct 21, 2014 at 9:04:50 AM

Latest Report: Oct 21, 2014 at 8:00 AM


Visibility: 19 mi

Pressure: 29.41 "Hg

Humidity: 85%

Dew point: 48 °F

Location of RotherhamLocation

Historic Weather in Rotherham — Graph

°F

Rotherham temperature yesterday

Maximum temperature yesterday: 57 °F (at 4:00 PM)
Minimum temperature yesterday: 49 °F (at 6:00 AM)
Average temperature yesterday: 53 °F

Past Weeks' High & Low Weather Summary

 TemperatureHumidityPressure
High65 °F (Oct 18, 1:00 PM)99% (Oct 7, 7:00 AM)29.95 "Hg (Oct 7, 7:00 AM)
Low39 °F (Oct 12, 7:00 AM)54% (Oct 19, 2:00 PM)29.21 "Hg (Oct 8, 4:00 PM)
Average53 °F89%29.65 "Hg
* Reported Oct 6 7:00 AM — Oct 21 7:00 AM, Rotherham, Weather by CustomWeather, © 2014

Note: Actual official high and low records may vary slightly from our data, if they occured in-between our weather recording intervals... More about our weather records

Advertising

Rotherham weather history for previous 24 hours

 ConditionsComfort  
Time TempWeatherWind HumidityBarometerVisibility
7:00 AM
Oct 21
54 °FCool.15 mph94%29.35 "Hg22 mi
6:00 AM53 °FCool.16 mph95%29.38 "Hg12 mi
5:00 AM53 °FCool.16 mph93%29.44 "Hg12 mi
4:00 AM53 °FLots of rain. Overcast.13 mph93%29.50 "Hg3 mi
3:00 AM53 °FCool.13 mph93%29.59 "Hg11 mi
2:00 AM53 °FCool.12 mph91%29.64 "Hg11 mi
1:00 AM52 °FCool.10 mph90%29.69 "Hg11 mi
12:00 AM52 °FCool.12 mph89%29.73 "Hg12 mi
11:00 PM
Oct 20
53 °FCool.9 mph87%29.78 "Hg13 mi
10:00 PM53 °FCool.10 mph85%29.80 "Hg13 mi
9:00 PM53 °FCool.9 mph84%29.83 "Hg14 mi
8:00 PM54 °FCool.8 mph82%29.84 "Hg14 mi
7:00 PM54 °FCool.6 mph82%29.86 "Hg12 mi
6:00 PM55 °FCool.8 mph77%29.87 "Hg14 mi
5:00 PM56 °FCool.7 mph75%29.87 "Hg14 mi
4:00 PM57 °FCool.9 mph73%29.88 "Hg17 mi
3:00 PM56 °FCool.8 mph77%29.90 "Hg18 mi
2:00 PM55 °FCool.8 mph83%29.92 "Hg19 mi
1:00 PM54 °FCool.8 mph90%29.93 "Hg16 mi
12:00 PM55 °FCool.8 mph82%29.94 "Hg19 mi
11:00 AM54 °FCool.9 mph84%29.95 "Hg18 mi
10:00 AM53 °FCool.9 mph88%29.94 "Hg19 mi
9:00 AM52 °FCool.9 mph92%29.95 "Hg19 mi
Weather by CustomWeather, © 2014

See weather overviewHow to use our weather pages